N0KTA-2 Weather Reports


Display with metric or nautical units.
time (UTC)temp
F
wind
direction
speed
MPH
gust
MPH
rain 1hr
in
rain 24hr
in
rain mn
in
humidity
%
barometer
mb
20260902085823 79 213 1.0 1.0 0.00 0.00 0.00 62 1008.3
20260902084824 79 202 1.0 2.0 0.00 0.00 0.00 61 1008.3
20260902083823 79 217 1.0 1.0 0.00 0.00 0.00 60 1008.2
20260902082824 80 218 0.0 1.0 0.00 0.00 0.00 59 1008.2
20260902081822 80 191 2.0 3.0 0.00 0.00 0.00 59 1008.2
20260902080823 80 195 1.0 3.0 0.00 0.00 0.00 59 1008.2
20260902075822 81 184 2.0 3.0 0.00 0.00 0.00 58 1008.2
20260902074823 81 197 3.0 5.0 0.00 0.00 0.00 57 1008.2
20260902073822 81 209 1.0 2.0 0.00 0.00 0.00 57 1008.2
20260902072823 81 194 2.0 3.0 0.00 0.00 0.00 57 1008.1
20260902071822 81 188 2.0 5.0 0.00 0.00 0.00 57 1008.1
20260902070823 82 201 2.0 3.0 0.00 0.00 0.00 56 1008.1
20260902065823 82 185 3.0 3.0 0.00 0.00 0.00 56 1008.1
20260902064824 82 201 1.0 3.0 0.00 0.00 0.00 56 1008.1
20260902063822 82 196 2.0 3.0 0.00 0.00 0.00 56 1008.1
20260902062823 82 206 2.0 3.0 0.00 0.00 0.00 55 1008.1
20260902061824 82 189 2.0 3.0 0.00 0.00 0.00 55 1008.1
20260902060823 82 194 2.0 3.0 0.00 0.00 0.00 55 1008.1
20260902055824 83 191 2.0 2.0 0.00 0.00 0.00 55 1008.1
20260902054823 83 193 3.0 3.0 0.00 0.00 0.00 54 1008.2
20260902053824 83 181 2.0 3.0 0.00 0.00 0.00 54 1008.1
20260902052823 83 180 2.0 3.0 0.00 0.00 0.00 54 1008.2
20260902051824 83 195 1.0 3.0 0.00 0.00 0.00 53 1008.2
20260902050823 84 202 2.0 3.0 0.00 0.00 0.00 52 1008.2
20260902045823 84 193 3.0 3.0 0.00 0.00 0.00 52 1008.2
20260902044822 84 191 2.0 3.0 0.00 0.00 0.00 51 1008.2
20260902043823 84 183 3.0 3.0 0.00 0.00 0.00 51 1008.2
20260902042822 85 187 2.0 3.0 0.00 0.00 0.00 50 1008.2
20260902041823 85 186 3.0 6.0 0.00 0.00 0.00 50 1008.2
20260902040823 84 188 2.0 5.0 0.00 0.00 0.00 49 1008.2
20260902035822 84 197 2.0 3.0 0.00 0.00 0.00 49 1008.4
20260902034823 84 199 1.0 3.0 0.00 0.00 0.00 48 1008.4
20260902033822 85 196 2.0 3.0 0.00 0.00 0.00 48 1008.3
20260902032824 85 223 1.0 2.0 0.00 0.00 0.00 47 1008.3
20260902031822 85 166 1.0 3.0 0.00 0.00 0.00 46 1008.2
20260902030823 86 178 1.0 2.0 0.00 0.00 0.00 45 1008.2
20260902025823 86 192 1.0 1.0 0.00 0.00 0.00 44 1008.1
20260902024824 87 231 0.0 1.0 0.00 0.00 0.00 44 1007.9
20260902023823 87 197 0.0 2.0 0.00 0.00 0.00 43 1007.9
20260902022824 88 193 2.0 3.0 0.00 0.00 0.00 42 1007.7
20260902021824 88 210 0.0 2.0 0.00 0.00 0.00 42 1007.4
20260902020823 89 191 1.0 3.0 0.00 0.00 0.00 41 1007.3
20260902015822 89 182 1.0 1.0 0.00 0.00 0.00 41 1007.5
20260902014823 89 185 0.0 2.0 0.00 0.00 0.00 40 1007.5
20260902013822 90 194 1.0 3.0 0.00 0.00 0.00 40 1007.3
20260902012822 91 156 1.0 2.0 0.00 0.00 0.00 39 1007.1
20260902011823 92 192 1.0 2.0 0.00 0.00 0.00 38 1007.1
20260902010822 93 175 1.0 3.0 0.00 0.00 0.00 37 1007.1
20260902005824 94 192 1.0 3.0 0.00 0.00 0.00 36 1007.4
20260902004823 94 197 2.0 5.0 0.00 0.00 0.00 36 1007.2
20260902003823 95 199 3.0 5.0 0.00 0.00 0.00 34 1007.3
20260902002823 96 190 2.0 3.0 0.00 0.00 0.00 34 1007.5
20260902001824 96 187 3.0 5.0 0.00 0.00 0.00 33 1007.4
20260902000823 97 186 6.0 8.0 0.00 0.00 0.00 33 1007.4
20260901235823 97 183 3.0 3.0 0.00 0.00 0.00 32 1007.5
20260901234823 98 187 6.0 10.0 0.00 0.00 0.00 32 1007.5
20260901233823 98 198 2.0 6.0 0.00 0.00 0.00 32 1007.5
20260901232823 98 193 5.0 12.0 0.00 0.00 0.00 32 1007.5
20260901231823 98 188 7.0 9.0 0.00 0.00 0.00 31 1007.5
20260901230822 98 213 2.0 5.0 0.00 0.00 0.00 32 1007.4
20260901225823 99 186 6.0 9.0 0.00 0.00 0.00 31 1007.4
20260901224822 99 212 3.0 9.0 0.00 0.00 0.00 31 1007.4
20260901223823 99 200 6.0 10.0 0.00 0.00 0.00 30 1007.4
20260901222823 100 215 6.0 13.0 0.00 0.00 0.00 30 1007.3
20260901221824 100 187 5.0 10.0 0.00 0.00 0.00 30 1007.3
20260901220823 99 189 5.0 6.0 0.00 0.00 0.00 30 1007.4
20260901215822 100 181 7.0 10.0 0.00 0.00 0.00 30 1007.3
20260901214823 100 192 7.0 10.0 0.00 0.00 0.00 29 1007.3
20260901213822 100 194 2.0 5.0 0.00 0.00 0.00 30 1007.4
20260901212824 100 240 3.0 6.0 0.00 0.00 0.00 29 1007.6
20260901211823 100 258 3.0 3.0 0.00 0.00 0.00 29 1007.8
20260901210822 100 229 1.0 6.0 0.00 0.00 0.00 29 1007.8
20260901205823 100 210 3.0 6.0 0.00 0.00 0.00 29 1007.9
20260901204822 100 178 9.0 14.0 0.00 0.00 0.00 29 1008.1
20260901203823 100 194 5.0 6.0 0.00 0.00 0.00 29 1008.3
20260901202823 100 184 6.0 12.0 0.00 0.00 0.00 30 1008.4
20260901201823 100 290 1.0 2.0 0.00 0.00 0.00 30 1008.4
20260901200822 100 269 2.0 10.0 0.00 0.00 0.00 30 1008.5
20260901195822 100 237 1.0 5.0 0.00 0.00 0.00 30 1008.7
20260901194823 99 184 7.0 12.0 0.00 0.00 0.00 30 1008.8
20260901193822 99 289 1.0 2.0 0.00 0.00 0.00 33 1008.8
20260901192824 98 272 1.0 3.0 0.00 0.00 0.00 33 1009.0
20260901191823 98 282 0.0 2.0 0.00 0.00 0.00 33 1009.0
20260901190822 99 282 2.0 7.0 0.00 0.00 0.00 32 1009.3
20260901185822 99 263 2.0 3.0 0.00 0.00 0.00 32 1009.2
20260901184822 99 192 5.0 12.0 0.00 0.00 0.00 32 1009.2
20260901183823 99 200 6.0 12.0 0.00 0.00 0.00 33 1009.3
20260901182823 98 248 2.0 6.0 0.00 0.00 0.00 33 1009.4
20260901181822 97 205 2.0 7.0 0.00 0.00 0.00 35 1009.7
20260901180823 96 263 1.0 3.0 0.00 0.00 0.00 37 1009.9
20260901175823 98 199 6.0 10.0 0.00 0.00 0.00 33 1009.8
20260901174822 98 190 7.0 10.0 0.00 0.00 0.00 34 1009.8
20260901173823 97 262 2.0 6.0 0.00 0.00 0.00 37 1009.9
20260901172822 97 276 2.0 5.0 0.00 0.00 0.00 38 1010.1
20260901171822 97 229 3.0 6.0 0.00 0.00 0.00 37 1010.2
20260901170823 96 276 2.0 2.0 0.00 0.00 0.00 38 1010.3
20260901165822 96 283 1.0 2.0 0.00 0.00 0.00 39 1010.4
20260901164822 96 240 1.0 3.0 0.00 0.00 0.00 40 1010.4
20260901163823 96 288 2.0 2.0 0.00 0.00 0.00 39 1010.4
20260901162822 95 277 1.0 2.0 0.00 0.00 0.00 39 1010.5
20260901161822 94 215 1.0 3.0 0.00 0.00 0.00 41 1010.6
20260901160823 93 286 1.0 2.0 0.00 0.00 0.00 42 1010.6
20260901155822 92 289 1.0 2.0 0.00 0.00 0.00 43 1010.6
20260901154822 92 282 1.0 2.0 0.00 0.00 0.00 43 1010.5
20260901153823 91 280 1.0 3.0 0.00 0.00 0.00 45 1010.7
20260901152822 90 260 1.0 7.0 0.00 0.00 0.00 45 1010.8
20260901151823 89 255 5.0 3.0 0.00 0.00 0.00 46 1010.8
20260901150822 88 221 2.0 5.0 0.00 0.00 0.00 48 1010.9
20260901145823 87 304 1.0 2.0 0.00 0.00 0.00 49 1011.0
20260901144822 86 260 1.0 2.0 0.00 0.00 0.00 51 1011.0
20260901143823 85 266 1.0 2.0 0.00 0.00 0.00 53 1011.1
20260901142822 83 258 1.0 3.0 0.00 0.00 0.00 55 1011.2
20260901141822 82 276 1.0 3.0 0.00 0.00 0.00 56 1011.2
20260901140822 82 194 0.0 0.0 0.00 0.00 0.00 58 1011.2
20260901135823 81 181 1.0 6.0 0.00 0.00 0.00 58 1011.2
20260901134822 80 184 2.0 3.0 0.00 0.00 0.00 58 1011.3
20260901133823 79 190 2.0 3.0 0.00 0.00 0.00 59 1011.3
20260901132823 78 191 3.0 3.0 0.00 0.00 0.00 60 1011.4
20260901131822 77 190 3.0 3.0 0.00 0.00 0.00 62 1011.4
20260901130823 76 183 1.0 3.0 0.00 0.00 0.00 63 1011.4
20260901125822 75 187 2.0 3.0 0.00 0.00 0.00 64 1011.3
20260901124823 74 194 2.0 3.0 0.00 0.00 0.00 64 1011.3
20260901123822 74 178 1.0 3.0 0.00 0.00 0.00 67 1011.2
20260901122823 73 190 0.0 2.0 0.00 0.00 0.00 67 1010.9
20260901121822 73 167 0.0 1.0 0.00 0.00 0.00 66 1010.8
20260901120822 73 175 0.0 1.0 0.00 0.00 0.00 66 1010.8
20260901115822 73 188 0.0 2.0 0.00 0.00 0.00 66 1010.5
20260901114823 73 175 0.0 1.0 0.00 0.00 0.00 67 1010.4
20260901113823 73 202 0.0 2.0 0.00 0.00 0.00 67 1010.5
20260901112823 73 217 0.0 0.0 0.00 0.00 0.00 67 1010.5
20260901111823 73 227 0.0 0.0 0.00 0.00 0.00 66 1010.5
20260901110822 74 227 0.0 0.0 0.00 0.00 0.00 65 1010.3
20260901105823 74 228 0.0 0.0 0.00 0.00 0.00 65 1010.1
20260901104822 74 225 0.0 1.0 0.00 0.00 0.00 64 1010.1
20260901103822 75 233 0.0 0.0 0.00 0.00 0.00 63 1010.1
20260901102823 75 233 0.0 0.0 0.00 0.00 0.00 61 1010.0
20260901101822 76 233 0.0 0.0 0.00 0.00 0.00 61 1010.0
20260901100822 76 237 0.0 1.0 0.00 0.00 0.00 60 1009.7
20260901095823 76 199 1.0 1.0 0.00 0.00 0.00 61 1009.6
20260901094822 76 206 1.0 2.0 0.00 0.00 0.00 60 1009.5
20260901093823 77 182 0.0 2.0 0.00 0.00 0.00 59 1009.4
20260901092822 77 208 0.0 1.0 0.00 0.00 0.00 58 1009.4
20260901091823 77 213 0.0 1.0 0.00 0.00 0.00 58 1009.4
20260901090823 77 183 0.0 2.0 0.00 0.00 0.00 58 1009.3